GW1663 Weather Reports


time (UTC)temp
C
wind
direction
speed
KPH
gust
KPH
rain 1hr
cm
rain 24hr
cm
rain mn
cm
humidity
%
barometer
mb
20260502190044 30 171 4.8 14.5 0.00 0.00 0.00 23 1016.9
20260502185538 31 254 4.8 16.1 0.00 0.00 0.00 22 1017.0
20260502185036 31 132 4.8 12.9 0.00 0.00 0.00 23 1017.2
20260502184532 30 134 17.7 22.5 0.00 0.00 0.00 24 1017.2
20260502184028 30 333 0.0 14.5 0.00 0.00 0.00 23 1017.1
20260502183524 31 104 3.2 20.9 0.00 0.00 0.00 23 1017.6
20260502183021 31 148 12.9 14.5 0.00 0.00 0.00 23 1017.5
20260502182515 30 119 6.4 17.7 0.00 0.00 0.00 24 1017.6
20260502182012 30 136 3.2 19.3 0.00 0.00 0.00 23 1018.0
20260502181510 30 240 8.0 20.9 0.00 0.00 0.00 22 1017.8
20260502181009 30 143 6.4 35.4 0.00 0.00 0.00 23 1017.8
20260502180505 30 175 8.0 22.5 0.00 0.00 0.00 24 1017.8
20260502170424 29 144 8.0 19.3 0.00 0.00 0.00 23 1018.2
20260502163907 28 133 6.4 17.7 0.00 0.00 0.00 22 1018.3
20260502163403 28 126 3.2 19.3 0.00 0.00 0.00 22 1018.2
20260502162901 28 66 4.8 22.5 0.00 0.00 0.00 21 1018.4
20260502162357 28 103 3.2 11.3 0.00 0.00 0.00 21 1018.1
20260502161854 28 99 6.4 16.1 0.00 0.00 0.00 20 1018.3
20260502161345 28 129 4.8 11.3 0.00 0.00 0.00 20 1018.2
20260502160843 28 131 14.5 19.3 0.00 0.00 0.00 20 1018.1
20260502160342 28 104 0.0 16.1 0.00 0.00 0.00 21 1018.3
20260502152317 27 127 3.2 11.3 0.00 0.00 0.00 21 1017.9
20260502151814 26 95 11.3 14.5 0.00 0.00 0.00 21 1017.7
20260502151311 26 156 1.6 14.5 0.00 0.00 0.00 22 1017.7
20260502150809 26 119 6.4 11.3 0.00 0.00 0.00 22 1017.8
20260502150305 26 47 3.2 9.7 0.00 0.00 0.00 23 1017.6
20260502130653 20 87 1.6 4.8 0.00 0.00 0.00 29 1016.4
20260502130151 19 358 1.6 4.8 0.00 0.00 0.00 29 1016.2
20260502123636 20 147 0.0 3.2 0.00 0.00 0.00 26 1016.0
20260502123133 20 49 1.6 3.2 0.00 0.00 0.00 26 1015.8
20260502122630 21 126 3.2 4.8 0.00 0.00 0.00 25 1015.7
20260502122126 21 104 0.0 4.8 0.00 0.00 0.00 26 1015.8
20260502121624 21 79 3.2 8.0 0.00 0.00 0.00 26 1015.7
20260502121121 21 141 1.6 3.2 0.00 0.00 0.00 26 1015.5
20260502120618 21 91 1.6 4.8 0.00 0.00 0.00 24 1015.7
20260502120115 21 313 3.2 8.0 0.00 0.00 0.00 24 1015.6
20260502115613 21 100 1.6 6.4 0.00 0.00 0.00 24 1015.7
20260502115108 21 50 0.0 4.8 0.00 0.00 0.00 24 1015.6
20260502114604 21 107 0.0 4.8 0.00 0.00 0.00 24 1015.5
20260502114102 22 140 0.0 9.7 0.00 0.00 0.00 23 1015.7
20260502113559 22 97 3.2 11.3 0.00 0.00 0.00 22 1015.5
20260502113057 22 80 4.8 9.7 0.00 0.00 0.00 22 1015.4
20260502112555 22 67 3.2 12.9 0.00 0.00 0.00 22 1015.3
20260502112053 22 85 3.2 9.7 0.00 0.00 0.00 23 1015.4
20260502111549 22 130 0.0 11.3 0.00 0.00 0.00 23 1015.5
20260502111047 22 81 3.2 8.0 0.00 0.00 0.00 23 1015.5
20260502110544 22 85 4.8 6.4 0.00 0.00 0.00 24 1015.3
20260502110042 22 79 3.2 4.8 0.00 0.00 0.00 23 1015.3
20260502105539 22 42 0.0 9.7 0.00 0.00 0.00 23 1015.5
20260502105037 22 83 8.0 11.3 0.00 0.00 0.00 23 1015.5
20260502104533 22 78 8.0 11.3 0.00 0.00 0.00 23 1015.6
20260502104031 22 118 3.2 9.7 0.00 0.00 0.00 24 1015.4
20260502103529 22 45 0.0 6.4 0.00 0.00 0.00 24 1015.4
20260502103026 22 260 0.0 6.4 0.00 0.00 0.00 24 1015.3
20260502102522 22 340 0.0 9.7 0.00 0.00 0.00 24 1015.4
20260502102020 22 330 0.0 4.8 0.00 0.00 0.00 24 1015.2
20260502101517 22 19 1.6 4.8 0.00 0.00 0.00 23 1015.2
20260502101016 22 221 0.0 6.4 0.00 0.00 0.00 23 1015.3
20260502100514 23 102 6.4 11.3 0.00 0.00 0.00 22 1015.2
20260502091448 24 92 6.4 12.9 0.00 0.00 0.00 22 1014.8
20260502090946 25 86 4.8 20.9 0.00 0.00 0.00 22 1014.9
20260502090442 24 106 6.4 22.5 0.00 0.00 0.00 22 1014.6
20260502071337 23 5 3.2 8.0 0.00 0.00 0.00 20 1014.5
20260502070835 24 332 8.0 17.7 0.00 0.00 0.00 19 1014.4
20260502070332 24 350 3.2 9.7 0.00 0.00 0.00 19 1014.2
20260502065831 24 345 4.8 11.3 0.00 0.00 0.00 18 1014.1
20260502065329 25 359 3.2 9.7 0.00 0.00 0.00 17 1014.0
20260502064827 25 337 8.0 11.3 0.00 0.00 0.00 18 1014.1
20260502064325 25 36 3.2 12.9 0.00 0.00 0.00 17 1014.3
20260502063821 25 338 4.8 12.9 0.00 0.00 0.00 16 1014.0
20260502063320 25 333 11.3 20.9 0.00 0.00 0.00 15 1013.9
20260502062816 25 331 8.0 16.1 0.00 0.00 0.00 15 1014.0
20260502062314 25 337 8.0 24.1 0.00 0.00 0.00 15 1014.0
20260502061812 26 294 14.5 20.9 0.00 0.00 0.00 15 1013.9
20260502061310 26 334 9.7 16.1 0.00 0.00 0.00 15 1013.6
20260502060805 26 299 4.8 19.3 0.00 0.00 0.00 15 1013.6
20260502060301 26 333 8.0 12.9 0.00 0.00 0.00 15 1013.5
20260502055759 26 269 4.8 16.1 0.00 0.00 0.00 16 1013.6
20260502055256 26 314 4.8 8.0 0.00 0.00 0.00 17 1013.5
20260502054755 26 295 3.2 9.7 0.00 0.00 0.00 17 1013.5
20260502054253 26 260 0.0 6.4 0.00 0.00 0.00 17 1013.6
20260502053750 26 230 0.0 8.0 0.00 0.00 0.00 18 1013.5
20260502053247 26 297 4.8 6.4 0.00 0.00 0.00 17 1013.5
20260502052745 27 278 4.8 8.0 0.00 0.00 0.00 16 1013.2
20260502052243 27 231 4.8 17.7 0.00 0.00 0.00 16 1013.3
20260502051740 28 246 6.4 20.9 0.00 0.00 0.00 17 1013.4
20260502051239 28 246 8.0 20.9 0.00 0.00 0.00 17 1013.4
20260502050735 26 328 3.2 9.7 0.00 0.00 0.00 20 1013.5
20260502050231 26 265 6.4 11.3 0.00 0.00 0.00 21 1013.3
20260502045728 26 255 1.6 8.0 0.00 0.00 0.00 21 1013.3
20260502045225 26 254 0.0 6.4 0.00 0.00 0.00 21 1013.3
20260502044722 26 264 0.0 8.0 0.00 0.00 0.00 21 1013.2
20260502044218 26 261 3.2 6.4 0.00 0.00 0.00 21 1013.3
20260502043716 26 257 3.2 3.2 0.00 0.00 0.00 22 1013.2
20260502043213 26 254 0.0 9.7 0.00 0.00 0.00 21 1013.1
20260502042712 26 228 3.2 9.7 0.00 0.00 0.00 22 1013.3
20260502042210 26 246 0.0 4.8 0.00 0.00 0.00 22 1013.1
20260502041708 26 235 0.0 4.8 0.00 0.00 0.00 22 1013.1
20260502041204 26 291 4.8 6.4 0.00 0.00 0.00 21 1013.2
20260502040701 26 266 1.6 3.2 0.00 0.00 0.00 22 1013.1
20260502040158 27 224 3.2 6.4 0.00 0.00 0.00 21 1012.9
20260502035654 27 205 0.0 8.0 0.00 0.00 0.00 20 1012.8
20260502035151 27 235 3.2 8.0 0.00 0.00 0.00 21 1012.7
20260502034649 27 224 6.4 8.0 0.00 0.00 0.00 20 1012.9
20260502034147 27 225 4.8 6.4 0.00 0.00 0.00 20 1012.7
20260502033645 27 230 3.2 8.0 0.00 0.00 0.00 20 1012.7
20260502033143 28 238 4.8 11.3 0.00 0.00 0.00 20 1012.5
20260502032639 28 219 4.8 11.3 0.00 0.00 0.00 19 1012.6
20260502032135 28 227 4.8 12.9 0.00 0.00 0.00 19 1012.6
20260502031633 28 225 4.8 12.9 0.00 0.00 0.00 19 1012.5
20260502031130 28 223 6.4 11.3 0.00 0.00 0.00 19 1012.4
20260502030629 28 229 9.7 14.5 0.00 0.00 0.00 19 1012.3
20260502030127 28 241 4.8 12.9 0.00 0.00 0.00 19 1012.4
20260502025624 28 225 9.7 16.1 0.00 0.00 0.00 19 1012.2
20260502025122 28 223 6.4 8.0 0.00 0.00 0.00 19 1012.2
20260502024619 29 230 8.0 14.5 0.00 0.00 0.00 19 1012.3
20260502024117 29 238 6.4 11.3 0.00 0.00 0.00 19 1012.1
20260502023615 29 220 4.8 9.7 0.00 0.00 0.00 18 1012.1
20260502023112 29 213 6.4 14.5 0.00 0.00 0.00 18 1012.0
20260502022609 30 228 12.9 16.1 0.00 0.00 0.00 18 1011.7
20260502022106 30 162 0.0 12.9 0.00 0.00 0.00 18 1011.7
20260502021603 30 210 8.0 16.1 0.00 0.00 0.00 17 1011.7
20260502021100 30 196 3.2 11.3 0.00 0.00 0.00 17 1011.5
20260502020557 30 182 6.4 17.7 0.00 0.00 0.00 17 1011.7
20260502020054 30 180 1.6 8.0 0.00 0.00 0.00 18 1011.4
20260502015552 30 182 4.8 12.9 0.00 0.00 0.00 18 1011.4
20260502015048 30 225 4.8 17.7 0.00 0.00 0.00 16 1011.4
20260502014545 31 209 8.0 12.9 0.00 0.00 0.00 17 1011.7
20260502014043 31 216 6.4 12.9 0.00 0.00 0.00 17 1011.4
20260502013538 31 224 3.2 12.9 0.00 0.00 0.00 16 1011.5
20260502013034 31 223 8.0 17.7 0.00 0.00 0.00 16 1011.4
20260502012532 31 198 1.6 8.0 0.00 0.00 0.00 17 1011.5
20260502012029 31 202 8.0 14.5 0.00 0.00 0.00 17 1011.5
20260502011526 31 168 4.8 9.7 0.00 0.00 0.00 17 1011.4
20260502011022 32 232 6.4 9.7 0.00 0.00 0.00 15 1011.1
20260502010520 32 227 9.7 11.3 0.00 0.00 0.00 15 1011.4
20260502010016 31 160 3.2 8.0 0.00 0.00 0.00 15 1011.6
20260502005514 31 138 3.2 9.7 0.00 0.00 0.00 17 1011.6
20260502005012 31 166 3.2 9.7 0.00 0.00 0.00 15 1011.5
20260502004507 32 206 4.8 11.3 0.00 0.00 0.00 15 1011.5
20260502004004 32 237 4.8 12.9 0.00 0.00 0.00 15 1011.6
20260502003502 31 298 0.0 4.8 0.00 0.00 0.00 16 1011.6
20260502002957 32 275 3.2 8.0 0.00 0.00 0.00 15 1011.7
20260502002455 32 312 3.2 12.9 0.00 0.00 0.00 16 1011.7
20260502001952 32 289 4.8 14.5 0.00 0.00 0.00 16 1011.8
20260502001449 33 328 6.4 9.7 0.00 0.00 0.00 15 1011.7
20260502000948 32 316 4.8 14.5 0.00 0.00 0.00 17 1011.6
20260502000447 32 249 4.8 16.1 0.00 0.00 0.00 17 1011.8
20260501235941 31 203 9.7 19.3 0.00 0.00 0.00 19 1011.8
20260501235437 32 130 9.7 11.3 0.00 0.00 0.00 19 1011.8
20260501234932 31 145 3.2 11.3 0.00 0.00 0.00 19 1011.7
20260501234429 32 204 6.4 14.5 0.00 0.00 0.00 19 1012.1
20260501233928 32 236 4.8 9.7 0.00 0.00 0.00 19 1011.8
20260501233425 31 238 9.7 24.1 0.00 0.00 0.00 20 1011.8
20260501232920 32 159 0.0 8.0 0.00 0.00 0.00 19 1012.1
20260501232418 32 233 6.4 9.7 0.00 0.00 0.00 18 1012.0
20260501231915 32 253 3.2 20.9 0.00 0.00 0.00 20 1011.7
20260501231414 31 162 6.4 11.3 0.00 0.00 0.00 20 1012.1
20260501230912 32 238 3.2 8.0 0.00 0.00 0.00 20 1012.1
20260501230410 32 252 4.8 17.7 0.00 0.00 0.00 20 1012.1
20260501225907 31 217 8.0 19.3 0.00 0.00 0.00 21 1012.2
20260501225404 31 224 8.0 17.7 0.00 0.00 0.00 21 1012.2
20260501224900 31 121 0.0 9.7 0.00 0.00 0.00 21 1012.3
20260501224358 31 217 6.4 11.3 0.00 0.00 0.00 21 1012.3
20260501223854 31 226 11.3 17.7 0.00 0.00 0.00 21 1012.5
20260501223350 31 235 8.0 14.5 0.00 0.00 0.00 21 1012.5
20260501222846 32 257 4.8 27.4 0.00 0.00 0.00 21 1012.4
20260501222344 32 262 8.0 16.1 0.00 0.00 0.00 21 1012.5
20260501221840 32 184 0.0 6.4 0.00 0.00 0.00 21 1012.7
20260501221338 32 254 6.4 9.7 0.00 0.00 0.00 21 1012.7
20260501220836 31 245 4.8 11.3 0.00 0.00 0.00 22 1012.9
20260501220333 32 230 6.4 17.7 0.00 0.00 0.00 21 1012.8
20260501215829 32 339 4.8 9.7 0.00 0.00 0.00 21 1012.9
20260501215326 31 336 4.8 11.3 0.00 0.00 0.00 21 1013.0
20260501214821 31 319 6.4 11.3 0.00 0.00 0.00 21 1013.3
20260501214317 31 297 3.2 6.4 0.00 0.00 0.00 22 1013.6
20260501213813 30 220 6.4 12.9 0.00 0.00 0.00 22 1013.4
20260501213309 31 349 9.7 14.5 0.00 0.00 0.00 21 1013.7
20260501212805 30 139 6.4 8.0 0.00 0.00 0.00 22 1013.4
20260501212305 30 238 6.4 11.3 0.00 0.00 0.00 22 1013.5
20260501211759 31 269 4.8 12.9 0.00 0.00 0.00 21 1013.7
20260501211256 30 198 1.6 24.1 0.00 0.00 0.00 22 1013.7
20260501210753 30 224 8.0 20.9 0.00 0.00 0.00 22 1013.8
20260501210250 30 211 4.8 9.7 0.00 0.00 0.00 22 1014.0
20260501205746 29 135 6.4 8.0 0.00 0.00 0.00 22 1013.9
20260501205243 30 143 1.6 9.7 0.00 0.00 0.00 22 1014.0
20260501204740 30 139 6.4 11.3 0.00 0.00 0.00 21 1014.1
20260501204237 30 183 4.8 12.9 0.00 0.00 0.00 21 1014.4
20260501203733 30 84 0.0 14.5 0.00 0.00 0.00 21 1014.1
20260501203231 30 239 8.0 9.7 0.00 0.00 0.00 21 1014.2
20260501202727 30 223 3.2 9.7 0.00 0.00 0.00 21 1014.4
20260501202224 28 149 4.8 9.7 0.00 0.00 0.00 22 1014.6
20260501201721 29 230 11.3 17.7 0.00 0.00 0.00 22 1014.6
20260501201218 29 245 8.0 12.9 0.00 0.00 0.00 22 1014.4
20260501200715 28 238 3.2 6.4 0.00 0.00 0.00 22 1014.5
20260501200212 28 273 8.0 11.3 0.00 0.00 0.00 23 1014.5
20260501195709 28 264 4.8 8.0 0.00 0.00 0.00 22 1014.6
20260501195205 28 230 8.0 17.7 0.00 0.00 0.00 24 1014.9
20260501194701 28 250 3.2 12.9 0.00 0.00 0.00 23 1014.8
20260501194156 28 258 6.4 17.7 0.00 0.00 0.00 23 1015.0
20260501193653 28 226 3.2 14.5 0.00 0.00 0.00 24 1014.9
20260501193152 27 148 1.6 8.0 0.00 0.00 0.00 25 1015.0
20260501192649 28 151 4.8 12.9 0.00 0.00 0.00 24 1015.2
20260501192147 28 310 6.4 9.7 0.00 0.00 0.00 25 1015.3
20260501191644 27 231 17.7 25.7 0.00 0.00 0.00 25 1015.2
20260501191141 27 227 9.7 19.3 0.00 0.00 0.00 26 1015.3
20260501190637 27 138 1.6 11.3 0.00 0.00 0.00 27 1015.4